Wind_Speed
32 32 34 34 38 34 34 39 38 32 30 33 38 47 46 45 43 43 41 39 37 35 34 33 32 31 30 30 30 31 30 30 30 30 30 31 31 33
38 40 30 31 30 36 31 34 29 35 36 32 28 37 45 46 49 48 48 46 43 40 38 37 36 36 36 35 35 34 34 34 34 34 34 35 35 34
45 42 37 35 31 35 30 31 32 31 35 38 38 32 33 33 34 39 51 51 47 46 45 43 42 41 40 39 38 38 37 36 37 37 37 37 38 37
40 35 38 31 41 32 36 31 32 35 32 31 36 40 38 37 34 37 36 39 44 51 51 50 48 47 45 43 42 41 40 39 40 40 38 37 36 37
36 34 40 40 32 33 34 31 34 38 40 34 36 39 39 37 38 34 37 38 37 37 45 50 51 52 51 49 47 45 44 42 40 36 38 38 36 36
42 40 41 38 28 31 38 38 36 35 37 36 37 39 40 41 42 41 41 41 41 41 43 44 46 49 50 52 54 50 46 47 44 42 40 40 41 39
40 46 37 45 43 37 40 42 36 38 32 33 37 37 42 43 42 45 45 45 46 44 43 40 44 46 43 43 50 51 47 44 42 41 40 37 37 37
47 52 40 26 36 50 39 35 40 41 35 36 38 41 42 43 40 39 41 40 40 41 40 42 42 42 45 44 43 47 48 49 45 42 41 38 35 33
53 53 46 44 41 45 48 50 43 39 39 41 37 38 42 45 46 38 36 38 40 42 40 40 42 40 42 42 44 48 46 43 41 39 38 35 35 33
51 50 52 52 55 44 46 48 49 46 46 48 41 41 41 36 39 32 32 30 33 29 30 30 30 35 34 37 42 45 46 45 42 39 38 39 39 37
52 52 51 53 55 55 52 50 56 50 51 49 53 51 48 41 39 41 42 40 41 37 40 39 37 38 38 35 42 46 44 43 42 41 39 40 41 39
54 53 54 53 55 58 59 55 52 54 54 54 57 60 55 51 51 48 41 37 45 44 45 41 41 37 42 45 42 36 33 35 34 32 33 34 35 38
61 62 63 61 57 59 63 66 70 60 58 58 63 63 61 60 56 55 56 54 52 50 47 50 46 43 44 44 43 43 42 42 39 38 32 34 36 36
52 63 67 68 67 67 67 68 70 74 77 71 65 63 63 64 66 60 58 59 54 53 49 47 49 46 44 48 46 48 48 50 47 44 41 35 39 43
18 20 25 37 52 56 63 72 75 74 76 76 77 82 82 73 70 68 66 65 63 60 59 58 59 53 55 57 53 52 49 50 49 49 45 44 41 41
26 28 30 30 30 30 32 36 46 58 69 77 78 81 82 83 84 85 87 85 84 84 84 82 78 76 73 72 65 66 65 60 60 59 54 52 50 47
36 37 36 35 36 37 38 36 34 35 39 46 55 63 68 75 85 88 87 86 85 85 85 85 82 78 77 75 73 69 69 74 75 70 68 65 67 65
42 41 43 44 43 41 41 42 42 41 40 38 39 43 47 53 63 71 76 78 79 82 84 83 85 83 82 80 77 75 72 72 73 72 72 71 70 69
49 48 40 41 46 48 49 48 47 46 46 46 44 42 42 43 46 46 49 58 70 77 81 84 84 84 83 82 82 80 79 79 78 77 78 78 80 78
50 52 51 43 41 48 52 53 54 52 51 51 51 51 49 47 45 43 44 46 46 45 47 62 78 84 86 87 85 84 84 84 83 83 83 83 83 82
52 51 51 50 49 46 45 51 55 56 56 54 53 53 54 53 51 49 46 44 44 46 47 48 47 48 58 70 83 88 88 88 88 87 87 86 86 85
52 51 52 51 49 51 49 47 52 57 59 59 57 53 53 53 53 51 49 48 45 44 44 44 46 48 48 46 49 56 64 72 82 87 88 88 89 90
51 52 53 54 54 52 55 57 60 61 63 62 58 55 52 51 51 51 50 49 48 46 47 47 47 46 47 47 47 45 44 46 52 59 64 69 73 76
Wind_Direction
199 201 208 209 210 219 216 222 225 227 226 224 229 223 224 226 228 233 238 239 236 239 241 244 246 248 249 252 255 258 263 267 272 277 280 284 290 294
212 220 210 209 215 217 219 223 227 226 224 226 224 228 229 233 231 230 235 237 241 242 243 244 247 251 255 257 259 262 265 269 272 275 279 283 287 290
230 223 229 214 221 226 224 225 229 232 235 236 237 232 233 240 241 239 235 238 239 241 244 246 248 250 253 257 261 264 266 269 273 276 278 282 283 287
235 240 223 217 239 215 223 236 222 231 245 242 243 237 241 244 249 237 237 244 246 243 243 245 247 250 252 256 258 261 263 268 271 274 276 277 283 288
228 233 239 236 231 238 238 241 238 241 250 245 239 241 243 247 243 241 237 243 247 249 246 248 251 253 253 253 255 260 263 264 271 273 276 279 283 289
225 230 240 213 215 225 229 234 236 235 237 239 240 240 244 247 245 244 242 243 244 249 249 248 250 254 255 254 253 257 261 265 265 271 274 279 283 286
229 231 236 228 241 230 239 234 244 242 244 242 244 242 239 242 243 245 245 244 247 246 246 247 252 254 256 258 253 255 262 265 263 266 276 277 282 283
232 232 224 244 249 235 251 238 240 244 246 249 251 247 245 241 236 239 245 245 242 245 244 246 249 246 251 257 249 254 260 262 267 267 271 271 269 271
233 243 248 249 249 248 249 248 250 248 237 238 239 245 246 245 239 236 239 245 247 251 252 252 252 257 252 248 249 252 258 257 260 258 262 267 267 266
236 241 242 247 251 254 251 252 262 258 244 233 230 232 223 229 224 215 222 222 231 225 219 220 214 219 228 235 243 247 249 255 255 256 259 262 264 264
241 244 247 248 250 250 262 256 257 250 245 246 231 227 224 227 222 213 215 215 216 213 214 213 218 223 220 217 228 235 239 241 246 251 255 261 264 262
250 250 251 252 250 251 253 248 247 241 241 242 229 228 225 229 230 229 217 219 223 220 213 218 217 217 216 224 226 228 234 239 241 244 252 255 257 262
254 254 253 253 255 255 253 256 257 243 235 236 239 236 229 225 231 231 234 232 229 226 230 226 238 248 245 247 253 252 259 263 271 275 277 261 258 258
257 258 260 262 260 259 257 257 258 258 258 252 238 236 232 233 228 225 229 226 227 233 240 245 248 254 256 256 265 267 268 272 276 278 278 269 259 265
280 277 273 266 264 265 263 260 258 258 258 259 259 259 261 243 239 239 237 233 231 236 244 247 259 248 254 265 266 261 262 269 269 273 273 272 266 259
275 275 275 276 277 279 277 268 261 259 260 259 259 257 259 262 264 264 266 263 263 265 267 266 267 267 271 271 271 273 269 268 270 272 272 271 271 264
278 277 274 273 273 272 272 273 273 270 264 258 256 257 256 257 258 260 261 262 263 265 267 269 270 269 269 270 270 268 270 275 274 271 270 269 270 269
283 280 278 276 271 268 268 269 268 268 269 268 265 261 258 255 254 253 253 254 254 254 256 255 259 258 260 262 262 261 258 258 260 261 260 258 259 261
278 286 289 280 277 272 269 268 268 267 266 265 265 265 266 262 258 258 260 258 255 250 249 249 248 249 249 249 251 251 250 252 252 252 252 253 256 257
280 285 288 288 283 277 273 269 268 269 269 267 266 264 264 265 265 265 262 259 259 261 261 258 254 252 250 248 246 246 246 247 247 248 250 251 252 253
282 285 283 283 284 284 283 279 271 268 268 269 268 266 265 264 264 264 265 266 265 264 265 266 265 261 257 255 254 253 252 250 248 248 249 250 251 251
281 280 278 281 283 283 282 274 275 273 271 271 273 272 269 268 269 269 269 269 269 269 268 267 267 269 269 268 264 257 254 255 257 256 256 256 255 254
278 276 275 277 282 279 273 270 269 269 271 273 274 273 273 272 271 272 273 274 273 272 271 272 273 272 271 271 270 268 265 263 259 257 255 256 259 261
Height
5732 5740 5748 5755 5762 5767 5772 5776 5781 5786 5791 5795 5799 5804 5809 5815 5820 5824 5826 5830 5834 5837 5840 5843 5845 5847 5848 5849 5850 5851 5851 5852 5852 5853 5853 5852 5851 5850
5726 5733 5741 5748 5754 5760 5765 5771 5775 5779 5784 5789 5792 5796 5800 5805 5810 5814 5818 5821 5825 5829 5833 5835 5837 5839 5840 5842 5843 5844 5845 5845 5846 5846 5846 5846 5845 5844
5720 5728 5735 5741 5748 5753 5758 5762 5768 5772 5778 5782 5786 5790 5794 5797 5801 5804 5807 5811 5816 5820 5823 5826 5829 5831 5832 5833 5835 5836 5837 5838 5838 5838 5838 5839 5838 5837
5713 5722 5729 5734 5741 5745 5751 5756 5760 5764 5770 5774 5777 5781 5785 5788 5792 5795 5798 5801 5805 5808 5812 5815 5818 5820 5823 5825 5826 5827 5828 5829 5830 5831 5831 5830 5830 5831
5709 5718 5723 5728 5735 5739 5743 5749 5753 5756 5760 5765 5769 5772 5776 5780 5783 5785 5789 5793 5795 5797 5800 5804 5808 5810 5812 5814 5816 5817 5818 5820 5821 5821 5823 5823 5824 5824
5705 5713 5718 5722 5727 5731 5736 5742 5746 5748 5751 5756 5759 5763 5765 5769 5773 5777 5780 5783 5785 5788 5789 5793 5795 5798 5801 5804 5804 5806 5808 5809 5811 5813 5814 5815 5816 5815
5701 5706 5711 5715 5721 5726 5730 5734 5738 5742 5745 5747 5749 5751 5755 5759 5763 5765 5768 5770 5774 5777 5780 5782 5783 5787 5790 5791 5793 5795 5797 5799 5801 5803 5805 5806 5806 5806
5695 5700 5703 5707 5711 5716 5721 5725 5730 5734 5737 5739 5742 5743 5744 5749 5752 5754 5757 5760 5763 5766 5768 5771 5772 5775 5778 5780 5781 5783 5785 5788 5791 5793 5794 5795 5795 5796
5690 5693 5696 5701 5706 5710 5712 5717 5721 5724 5728 5731 5734 5735 5736 5738 5741 5745 5747 5748 5751 5754 5756 5759 5762 5764 5764 5768 5769 5771 5775 5778 5780 5780 5782 5785 5786 5787
5684 5686 5690 5694 5697 5701 5703 5707 5711 5715 5719 5721 5724 5726 5729 5728 5730 5735 5737 5740 5742 5746 5748 5751 5753 5755 5755 5756 5757 5759 5763 5766 5769 5770 5771 5774 5777 5778
5676 5679 5682 5685 5688 5692 5694 5696 5700 5703 5708 5709 5713 5716 5718 5720 5721 5722 5726 5729 5731 5736 5737 5739 5741 5743 5744 5745 5744 5747 5749 5753 5756 5759 5761 5764 5766 5768
5668 5670 5673 5675 5677 5680 5682 5685 5690 5692 5695 5699 5699 5701 5704 5706 5710 5713 5715 5717 5722 5725 5726 5729 5730 5731 5732 5735 5738 5741 5743 5744 5746 5749 5752 5755 5756 5759
5657 5659 5660 5663 5664 5667 5669 5671 5674 5678 5681 5684 5686 5687 5688 5690 5694 5697 5701 5702 5705 5708 5711 5714 5716 5718 5721 5723 5724 5728 5731 5733 5736 5739 5743 5746 5748 5750
5645 5646 5646 5647 5649 5651 5654 5655 5658 5661 5665 5668 5669 5671 5673 5675 5676 5679 5684 5686 5690 5692 5694 5698 5701 5703 5705 5708 5711 5713 5716 5718 5721 5725 5728 5734 5737 5740
5636 5634 5633 5632 5632 5632 5634 5637 5639 5643 5646 5649 5652 5653 5655 5657 5658 5660 5664 5667 5671 5675 5679 5681 5682 5684 5686 5689 5693 5697 5700 5703 5706 5711 5716 5718 5722 5725
5628 5626 5624 5622 5621 5620 5618 5617 5618 5621 5623 5627 5629 5633 5636 5636 5639 5641 5643 5647 5651 5654 5657 5660 5662 5664 5669 5673 5676 5679 5683 5686 5689 5693 5697 5702 5706 5711
5616 5615 5613 5611 5610 5608 5606 5605 5606 5606 5605 5606 5606 5608 5610 5612 5615 5620 5624 5628 5631 5634 5637 5638 5641 5644 5647 5652 5656 5661 5663 5667 5671 5673 5676 5680 5685 5689
5603 5601 5599 5597 5596 5595 5594 5592 5591 5591 5591 5591 5591 5591 5590 5591 5591 5594 5598 5601 5606 5609 5611 5613 5618 5622 5627 5629 5634 5638 5643 5646 5649 5652 5654 5657 5660 5666
5587 5584 5583 5582 5581 5580 5579 5577 5576 5575 5574 5574 5575 5575 5575 5576 5575 5577 5577 5577 5581 5584 5584 5588 5592 5596 5599 5602 5609 5612 5616 5621 5626 5629 5631 5634 5637 5643
5573 5570 5567 5564 5563 5563 5562 5562 5560 5560 5559 5559 5559 5558 5558 5559 5559 5560 5562 5564 5565 5564 5562 5565 5569 5572 5574 5579 5581 5585 5588 5593 5597 5601 5605 5607 5610 5617
5556 5553 5550 5548 5546 5545 5544 5543 5543 5543 5543 5543 5543 5544 5543 5543 5544 5545 5545 5546 5547 5548 5548 5549 5550 5550 5551 5553 5557 5561 5564 5566 5571 5575 5576 5578 5582 5587
5537 5535 5534 5531 5529 5526 5524 5523 5523 5522 5523 5524 5524 5525 5526 5527 5527 5527 5528 5529 5530 5531 5532 5534 5534 5535 5534 5535 5537 5538 5539 5541 5546 5549 5551 5552 5555 5559
5517 5516 5515 5513 5511 5509 5505 5504 5503 5503 5502 5502 5503 5504 5507 5508 5510 5510 5511 5512 5513 5513 5514 5515 5516 5516 5517 5518 5519 5520 5521 5522 5523 5524 5526 5526 5530 5533